Regional Weather Roundup
Issued by NWS Jackson, KY

Home | Current Version | Previous Version | Graphics & Text | Print | Product List | Glossary On
Versions: 1 2 3 4 5 6 7 8 9 10 11 12 13 14 15 16 17 18 19 20 21 22 23 24 25 26 27 28 29 30 31 32 33 34 35 36 37 38 39 40 41 42 43 44 45 46 47 48 49 50
000
ASUS43 KJKL 261810
RWRJKL

EAST KENTUCKY HOURLY WEATHER ROUNDUP
NATIONAL WEATHER SERVICE JACKSON KY
200 PM EDT TUE MAY 26 2015

NOTE: "FAIR" INDICATES FEW OR NO CLOUDS BELOW 12,000 FEET WITH
NO SIGNIFICANT WEATHER AND/OR OBSTRUCTIONS TO VISIBILITY.

* THESE REPORTS ARE NOT UNDER NWS QUALITY CONTROL AND MAY NOT
  REPORT WEATHER SUCH AS PRECIPITATION AND FOG.

KYZ079-080-083-085-087-088-110-112-115-119-120-261900
...EASTERN KENTUCKY...

CITY           SKY/WX    TMP DP  RH WIND       PRES   REMARKS
JACKSON        MOSUNNY   82  64  54 S10G18    30.16F
6HR MIN TEMP:  69; 6HR MAX TEMP:  83;

LONDON         MOSUNNY   83  62  49 S13G23    30.15F
6HR MIN TEMP:  72; 6HR MAX TEMP:  84;

SOMERSET*      PTSUNNY   81  63  54 S13G25    30.13F
MONTICELLO*    PTSUNNY   83  67  58 S15G24    30.15S
6HR MIN TEMP:  72; 6HR MAX TEMP:  83;

MIDDLESBORO*   PTSUNNY   83  66  57 S8G17     30.17F
6HR MIN TEMP:  66; 6HR MAX TEMP:  83; 6HR PCP:  0.01;

HARLAN APT*    CLOUDY    81  63  54 S5        30.19F
HAZARD APT*    MOCLDY    84  63  48 S12G22    30.16F
BLACK MTN*       N/A     70  63  78 S3          N/A
PIKEVILLE APT* SUNNY     81  66  61 S7        30.18F
BIG SANDY*     MOCLDY    83  66  57 S13       30.17F
6HR MIN TEMP:  72; 6HR MAX TEMP:  84;

MOREHEAD APT*  MOCLDY    84  66  54 S10G23    30.13F
$$

KYZ035-036-041-042-044-050-067-078-099-261900
...CENTRAL KENTUCKY...

CITY           SKY/WX    TMP DP  RH WIND       PRES   REMARKS
MT STERLING*   PTSUNNY   81  68  65 S15       30.12F
FLEMING/MASON* PTSUNNY   81  70  69 SW13G22   30.10F
DANVILLE*      PTSUNNY   77  70  78 S9        30.11F
RICHMOND*      PTSUNNY   84  64  51 S14G20    30.10F
LEXINGTON      CLOUDY    78  67  68 SW9G33    30.08F THUNDER
6HR MIN TEMP:  69; 6HR MAX TEMP:  84;

FRANKFORT      MOSUNNY   79  67  66 S14G21    30.05F
6HR MIN TEMP:  68; 6HR MAX TEMP:  84; 6HR PCP: TRACE;

$$

KYZ091>093-OHZ055-061-077-WVZ005-015-034-035-042-261900
...SOUTHERN OHIO/WEST VIRGINIA...

CITY           SKY/WX    TMP DP  RH WIND       PRES   REMARKS
COVINGTON      PTSUNNY   83  67  58 S14G23    30.03F
COLUMBUS       PTSUNNY   83  64  52 S14G21    30.07F
DAYTON         PTSUNNY   85  65  51 S16G26    30.03F
WILMINGTON     PTSUNNY   84  62  47 S17G26    30.06F
HUNTINGTON     PTSUNNY   84  65  52 S7G21     30.13F
CHARLESTON     PTSUNNY   83  65  54 VRB6      30.16F
PINEVILLE*     PTSUNNY   80  68  66 MISG      30.27F
BECKLEY        CLOUDY    79  61  53 SW9       30.27F
BLUEFIELD      LGT RAIN  73  62  68 VRB3      30.29F
$$

VAZ002-007-008-TNZ017-027-036-066-071-261900
...SOUTHWEST VIRGINIA/EAST TENNESSEE...

CITY           SKY/WX    TMP DP  RH WIND       PRES   REMARKS
WISE*          CLOUDY    79  59  50 S9G16     30.28F
JONESVILLE*    CLOUDY    81  64  57 E3        30.22F
ABINGDON*      PTSUNNY   80  65  59 W10       30.26F
BRISTOL        CLOUDY    82  62  50 S10       30.23F
KNOXVILLE      PTSUNNY   87  63  44 S23       30.15F
OAK RIDGE      PTSUNNY   84  68  58 S10G17    30.17F
CROSSVILLE     PTSUNNY   79  65  62 VRB7      30.18F
NASHVILLE      LGT RAIN  75  70  84 S8        30.10S
$$

...KEY TO REMARKS...
VSB - VISIBILITY IN MILES
WCI - WIND CHILL INDEX
HX  - HEAT INDEX

$$


USA.gov is the U.S. government's official web portal to all federal, state and local government web resources and services.